Location: Unspecified
(0.0000°N, 0.0000°E)
Time: 04:00:29
(UTC+02:00)

Cosmos 2219 - Visible Passes

Search period start: 28 May 2015 00:00
Search period end: 07 June 2015 00:00
Orbit: 835 x 859 km, 71.1° (Epoch: 26 May)

Date Brightness Start Highest point End Pass type
(mag) Time Alt. Az. Time Alt. Az. Time Alt. Az.
28 May 5.3 06:27:40 10° SSE 06:32:05 24° ESE 06:36:39 10° NE visible
29 May 5.3 06:14:20 10° SSE 06:18:41 23° ESE 06:23:12 10° NE visible
30 May 5.3 06:01:01 10° SSE 06:05:17 23° ESE 06:09:44 10° NE visible
31 May 5.3 05:47:42 10° SSE 05:51:53 22° ESE 05:56:16 10° ENE visible
31 May 4.3 07:31:15 10° SW 07:35:57 25° WNW 07:40:27 10° NNW visible
01 Jun 5.3 05:35:42 15° SE 05:38:29 21° ESE 05:42:48 10° ENE visible
01 Jun 4.2 07:17:48 10° SW 07:22:33 26° WNW 07:27:06 10° NNW visible
02 Jun 5.2 05:23:39 19° SE 05:25:05 21° ESE 05:29:20 10° ENE visible
02 Jun 4.2 07:05:39 16° WSW 07:09:09 27° WNW 07:13:47 10° NNW visible
03 Jun 5.3 05:11:31 20° ESE 05:11:41 20° ESE 05:15:51 10° ENE visible
03 Jun 4.1 06:53:30 22° WSW 06:55:46 28° WNW 07:00:26 10° NNW visible
04 Jun 5.4 04:59:20 19° E 04:59:20 19° E 05:02:22 10° ENE visible
04 Jun 4.1 06:41:18 27° W 06:42:22 29° WNW 06:47:05 10° NNW visible
05 Jun 5.7 04:47:04 16° E 04:47:04 16° E 04:48:53 10° ENE visible
05 Jun 4.1 06:29:02 30° WNW 06:29:02 30° WNW 06:33:45 10° NNW visible
06 Jun 6.0 04:34:43 12° ENE 04:34:43 12° ENE 04:35:24 10° ENE visible
06 Jun 4.3 06:16:42 28° NW 06:16:42 28° NW 06:20:25 10° NNW visible
